Index of /pmb/codes/nwprod/hwrf.v7.0.4/fix/hwrf-pom

[ICO]NameLast modifiedSizeDescription

[DIR]Parent Directory  -  
[   ]gfdl_Hdeepgsu.eastatl02-Apr-2014 02:36 490K 
[   ]gfdl_Hdeepgsu.united02-Apr-2014 02:36 793K 
[   ]gfdl_albedo.fall02-Apr-2014 02:36 8.9M 
[   ]gfdl_albedo.spring02-Apr-2014 02:36 8.9M 
[   ]gfdl_albedo.summer02-Apr-2014 02:36 8.9M 
[   ]gfdl_albedo.winter02-Apr-2014 02:36 8.9M 
[   ]gfdl_datainp102-Apr-2014 02:36 51  
[   ]gfdl_datainp1.l4202-Apr-2014 02:36 51  
[   ]gfdl_datainp202-Apr-2014 02:36 118  
[TXT]gfdl_disclaimer.txt02-Apr-2014 02:36 208  
[   ]gfdl_fildef.afos02-Apr-2014 02:36 118  
[   ]gfdl_fildef.sdm02-Apr-2014 02:36 128  
[   ]gfdl_fort.702-Apr-2014 02:36 48K 
[   ]gfdl_fort.7.l4202-Apr-2014 02:36 212K 
[   ]gfdl_gdem.00.ascii02-Apr-2014 02:36 0  
[   ]gfdl_gdem.01.ascii02-Apr-2014 02:36 6.6M 
[   ]gfdl_gdem.02.ascii02-Apr-2014 02:36 6.6M 
[   ]gfdl_gdem.03.ascii02-Apr-2014 02:36 6.6M 
[   ]gfdl_gdem.04.ascii02-Apr-2014 02:36 6.6M 
[   ]gfdl_gdem.05.ascii02-Apr-2014 02:36 6.6M 
[   ]gfdl_gdem.06.ascii02-Apr-2014 02:36 6.6M 
[   ]gfdl_gdem.07.ascii02-Apr-2014 02:36 6.6M 
[   ]gfdl_gdem.08.ascii02-Apr-2014 02:36 6.6M 
[   ]gfdl_gdem.09.ascii02-Apr-2014 02:36 6.6M 
[   ]gfdl_gdem.10.ascii02-Apr-2014 02:36 6.6M 
[   ]gfdl_gdem.11.ascii02-Apr-2014 02:36 6.6M 
[   ]gfdl_gdem.12.ascii02-Apr-2014 02:36 6.6M 
[   ]gfdl_gdem.13.ascii02-Apr-2014 02:36 0  
[   ]gfdl_height02-Apr-2014 02:36 8.9M 
[   ]gfdl_huranal.data02-Apr-2014 02:36 118  
[   ]gfdl_initdata.eastatl.0102-Apr-2014 02:36 8.9M 
[   ]gfdl_initdata.eastatl.0202-Apr-2014 02:36 8.9M 
[   ]gfdl_initdata.eastatl.0302-Apr-2014 02:36 8.9M 
[   ]gfdl_initdata.eastatl.0402-Apr-2014 02:36 8.9M 
[   ]gfdl_initdata.eastatl.0502-Apr-2014 02:36 8.9M 
[   ]gfdl_initdata.eastatl.0602-Apr-2014 02:36 8.9M 
[   ]gfdl_initdata.eastatl.0702-Apr-2014 02:36 8.9M 
[   ]gfdl_initdata.eastatl.0802-Apr-2014 02:36 8.9M 
[   ]gfdl_initdata.eastatl.0902-Apr-2014 02:36 8.9M 
[   ]gfdl_initdata.eastatl.1002-Apr-2014 02:36 8.9M 
[   ]gfdl_initdata.eastatl.1102-Apr-2014 02:36 8.9M 
[   ]gfdl_initdata.eastatl.1202-Apr-2014 02:36 8.9M 
[   ]gfdl_initdata.gdem.united.0102-Apr-2014 02:36 14M 
[   ]gfdl_initdata.gdem.united.0202-Apr-2014 02:36 14M 
[   ]gfdl_initdata.gdem.united.0302-Apr-2014 02:36 14M 
[   ]gfdl_initdata.gdem.united.0402-Apr-2014 02:36 14M 
[   ]gfdl_initdata.gdem.united.0502-Apr-2014 02:36 14M 
[   ]gfdl_initdata.gdem.united.0602-Apr-2014 02:36 14M 
[   ]gfdl_initdata.gdem.united.0702-Apr-2014 02:36 14M 
[   ]gfdl_initdata.gdem.united.0802-Apr-2014 02:36 14M 
[   ]gfdl_initdata.gdem.united.0902-Apr-2014 02:36 14M 
[   ]gfdl_initdata.gdem.united.1002-Apr-2014 02:36 14M 
[   ]gfdl_initdata.gdem.united.1102-Apr-2014 02:36 14M 
[   ]gfdl_initdata.gdem.united.1202-Apr-2014 02:36 14M 
[   ]gfdl_initdata.gdem3.united.0502-Apr-2014 02:36 14M 
[   ]gfdl_initdata.gdem3.united.0602-Apr-2014 02:36 14M 
[   ]gfdl_initdata.gdem3.united.0702-Apr-2014 02:36 14M 
[   ]gfdl_initdata.gdem3.united.0802-Apr-2014 02:37 14M 
[   ]gfdl_initdata.gdem3.united.0902-Apr-2014 02:37 14M 
[   ]gfdl_initdata.gdem3.united.1002-Apr-2014 02:37 14M 
[   ]gfdl_initdata.gdem3.united.1102-Apr-2014 02:37 14M 
[   ]gfdl_initdata.gdem3.united.1202-Apr-2014 02:37 14M 
[   ]gfdl_initdata.levit.united.0502-Apr-2014 02:37 14M 
[   ]gfdl_initdata.levit.united.0602-Apr-2014 02:37 14M 
[   ]gfdl_initdata.levit.united.0702-Apr-2014 02:37 14M 
[   ]gfdl_initdata.levit.united.0802-Apr-2014 02:37 14M 
[   ]gfdl_initdata.levit.united.0902-Apr-2014 02:37 14M 
[   ]gfdl_initdata.levit.united.1002-Apr-2014 02:37 14M 
[   ]gfdl_initdata.levit.united.1102-Apr-2014 02:37 14M 
[   ]gfdl_initdata.levit.united.1202-Apr-2014 02:37 14M 
[   ]gfdl_initdata.united.0102-Apr-2014 02:37 14M 
[   ]gfdl_initdata.united.0202-Apr-2014 02:37 14M 
[   ]gfdl_initdata.united.0302-Apr-2014 02:37 14M 
[   ]gfdl_initdata.united.0402-Apr-2014 02:37 14M 
[   ]gfdl_initdata.united.0502-Apr-2014 02:37 14M 
[   ]gfdl_initdata.united.0602-Apr-2014 02:37 14M 
[   ]gfdl_initdata.united.0702-Apr-2014 02:37 14M 
[   ]gfdl_initdata.united.0802-Apr-2014 02:37 14M 
[   ]gfdl_initdata.united.0902-Apr-2014 02:37 14M 
[   ]gfdl_initdata.united.1002-Apr-2014 02:37 14M 
[   ]gfdl_initdata.united.1102-Apr-2014 02:37 14M 
[   ]gfdl_initdata.united.1202-Apr-2014 02:37 14M 
[   ]gfdl_limit_2nest_dat_x.102-Apr-2014 02:37 259  
[   ]gfdl_limit_2nest_dat_x.502-Apr-2014 02:37 703  
[   ]gfdl_limit_2nest_dat_x.602-Apr-2014 02:37 814  
[   ]gfdl_limit_2nest_dat_y.102-Apr-2014 02:37 111  
[   ]gfdl_limit_2nest_dat_y.602-Apr-2014 02:37 666  
[   ]gfdl_limit_2nest_dat_y.1202-Apr-2014 02:37 1.4K 
[   ]gfdl_limit_2nest_dat_y.1502-Apr-2014 02:37 1.6K 
[   ]gfdl_limit_2nest_dat_y.1602-Apr-2014 02:37 1.7K 
[   ]gfdl_ocean_dat02-Apr-2014 02:37 26  
[   ]gfdl_ocean_readu.dat.0102-Apr-2014 02:37 26M 
[   ]gfdl_ocean_readu.dat.0202-Apr-2014 02:38 26M 
[   ]gfdl_ocean_readu.dat.0302-Apr-2014 02:38 26M 
[   ]gfdl_ocean_readu.dat.0402-Apr-2014 02:38 26M 
[   ]gfdl_ocean_readu.dat.0502-Apr-2014 02:38 26M 
[   ]gfdl_ocean_readu.dat.0602-Apr-2014 02:38 26M 
[   ]gfdl_ocean_readu.dat.0702-Apr-2014 02:38 26M 
[   ]gfdl_ocean_readu.dat.0802-Apr-2014 02:38 26M 
[   ]gfdl_ocean_readu.dat.0902-Apr-2014 02:38 26M 
[   ]gfdl_ocean_readu.dat.1002-Apr-2014 02:38 26M 
[   ]gfdl_ocean_readu.dat.1102-Apr-2014 02:38 26M 
[   ]gfdl_ocean_readu.dat.1202-Apr-2014 02:38 26M 
[   ]gfdl_ocean_spinup.BAYuf02-Apr-2014 02:38 3.4K 
[   ]gfdl_ocean_spinup.FSgsuf02-Apr-2014 02:38 2.4K 
[   ]gfdl_ocean_spinup.SGYREuf02-Apr-2014 02:38 30K 
[   ]gfdl_ocean_spinup_gdem3.dat.0102-Apr-2014 02:38 26M 
[   ]gfdl_ocean_spinup_gdem3.dat.0202-Apr-2014 02:38 26M 
[   ]gfdl_ocean_spinup_gdem3.dat.0302-Apr-2014 02:38 26M 
[   ]gfdl_ocean_spinup_gdem3.dat.0402-Apr-2014 02:38 26M 
[   ]gfdl_ocean_spinup_gdem3.dat.0502-Apr-2014 02:38 26M 
[   ]gfdl_ocean_spinup_gdem3.dat.0602-Apr-2014 02:38 26M 
[   ]gfdl_ocean_spinup_gdem3.dat.0702-Apr-2014 02:38 26M 
[   ]gfdl_ocean_spinup_gdem3.dat.0802-Apr-2014 02:38 26M 
[   ]gfdl_ocean_spinup_gdem3.dat.0902-Apr-2014 02:38 26M 
[   ]gfdl_ocean_spinup_gdem3.dat.1002-Apr-2014 02:38 26M 
[   ]gfdl_ocean_spinup_gdem3.dat.1102-Apr-2014 02:38 26M 
[   ]gfdl_ocean_spinup_gdem3.dat.1202-Apr-2014 02:38 26M 
[   ]gfdl_ocean_spinup_gspath.0102-Apr-2014 02:38 1.7K 
[   ]gfdl_ocean_spinup_gspath.0202-Apr-2014 02:38 1.7K 
[   ]gfdl_ocean_spinup_gspath.0302-Apr-2014 02:38 1.7K 
[   ]gfdl_ocean_spinup_gspath.0402-Apr-2014 02:38 1.7K 
[   ]gfdl_ocean_spinup_gspath.0502-Apr-2014 02:38 1.7K 
[   ]gfdl_ocean_spinup_gspath.0602-Apr-2014 02:38 1.7K 
[   ]gfdl_ocean_spinup_gspath.0702-Apr-2014 02:38 1.7K 
[   ]gfdl_ocean_spinup_gspath.0802-Apr-2014 02:38 1.7K 
[   ]gfdl_ocean_spinup_gspath.0902-Apr-2014 02:38 1.7K 
[   ]gfdl_ocean_spinup_gspath.1002-Apr-2014 02:38 1.7K 
[   ]gfdl_ocean_spinup_gspath.1102-Apr-2014 02:38 1.7K 
[   ]gfdl_ocean_spinup_gspath.1202-Apr-2014 02:38 1.7K 
[   ]gfdl_ocean_topo_and_mask.eastpac_x.lores02-Apr-2014 02:38 765K 
[   ]gfdl_ocean_topo_and_mask.transatl.lores02-Apr-2014 02:38 765K 
[   ]gfdl_ocean_topo_and_mask.united02-Apr-2014 02:38 1.2M 
[   ]gfdl_pctwat02-Apr-2014 02:38 8.9M 
[   ]gfdl_raw_temp_salin.eastpac.0402-Apr-2014 02:38 17M 
[   ]gfdl_raw_temp_salin.eastpac.0502-Apr-2014 02:38 17M 
[   ]gfdl_raw_temp_salin.eastpac.0602-Apr-2014 02:38 17M 
[   ]gfdl_raw_temp_salin.eastpac.0702-Apr-2014 02:38 17M 
[   ]gfdl_raw_temp_salin.eastpac.0802-Apr-2014 02:39 17M 
[   ]gfdl_raw_temp_salin.eastpac.0902-Apr-2014 02:39 17M 
[   ]gfdl_raw_temp_salin.eastpac.1002-Apr-2014 02:39 17M 
[   ]gfdl_raw_temp_salin.eastpac.1102-Apr-2014 02:39 17M 
[   ]gfdl_raw_temp_salin.eastpac.1202-Apr-2014 02:39 17M 
[   ]gfdl_wetness02-Apr-2014 02:39 8.9M 
[   ]gfdl_znot02-Apr-2014 02:39 8.9M 
[   ]sgdemv3s01.nc02-Apr-2014 02:39 295M 
[   ]sgdemv3s02.nc02-Apr-2014 02:39 295M 
[   ]sgdemv3s03.nc02-Apr-2014 02:39 295M 
[   ]sgdemv3s04.nc02-Apr-2014 02:40 295M 
[   ]sgdemv3s05.nc02-Apr-2014 02:40 295M 
[   ]sgdemv3s06.nc02-Apr-2014 02:41 295M 
[   ]sgdemv3s07.nc02-Apr-2014 02:41 295M 
[   ]sgdemv3s08.nc02-Apr-2014 02:41 295M 
[   ]sgdemv3s09.nc02-Apr-2014 02:41 295M 
[   ]sgdemv3s10.nc02-Apr-2014 02:42 295M 
[   ]sgdemv3s11.nc02-Apr-2014 02:42 295M 
[   ]sgdemv3s12.nc02-Apr-2014 02:42 295M 
[   ]tgdemv3s01.nc02-Apr-2014 02:42 295M 
[   ]tgdemv3s02.nc02-Apr-2014 02:43 295M 
[   ]tgdemv3s03.nc02-Apr-2014 02:43 295M 
[   ]tgdemv3s04.nc02-Apr-2014 02:43 295M 
[   ]tgdemv3s05.nc02-Apr-2014 02:44 295M 
[   ]tgdemv3s06.nc02-Apr-2014 02:44 295M 
[   ]tgdemv3s07.nc02-Apr-2014 02:44 295M 
[   ]tgdemv3s08.nc02-Apr-2014 02:44 295M 
[   ]tgdemv3s09.nc02-Apr-2014 02:45 295M 
[   ]tgdemv3s10.nc02-Apr-2014 02:45 295M 
[   ]tgdemv3s11.nc02-Apr-2014 02:45 295M 
[   ]tgdemv3s12.nc02-Apr-2014 02:45 295M